Alexandria, LA

3:13 AM CDT on April 23, 2017 (GMT -0500)
Alexandria International

Weather History for KAEX - December, 1999

Change the Weather History Date:

Thursday, December 30, 1999

  Actual Average Record
Temperature  
Mean Temperature 58 °F 49 °F  
Max Temperature 73 °F 59 °F 80 °F (1973)
Min Temperature 42 °F 39 °F 14 °F (1983)
Degree Days  
Heating Degree Days 8 16  
Month to date heating degree days 449  
Since 1 July heating degree days 774  
Growing Degree Days 8 (Base 50)    
Moisture  
Dew Point 51 °F    
Average Humidity 85    
Maximum Humidity 100    
Minimum Humidity 51    
Precipitation  
Precipitation 0.00 in 0.13 in 3.40 in (2006)
Month to date precipitation 5.99  
Year to date precipitation 55.79  
Snow  
Snow 0.00 in - 0.00 in ()
Month to date snowfall  
Since 1 July snowfall  
Snow Depth -    
Sea Level Pressure  
Sea Level Pressure 29.96 in    
Wind  
Wind Speed 7 mph (SSE)    
Max Wind Speed 16 mph    
Max Gust Speed 24 mph    
Visibility 6 miles    
Events Rain    
T = Trace of Precipitation, MM = Missing Value Source: NWS Daily Summary

Daily Weather History Graph

Daily Weather History Graph

Search for Another Location

Airport or City:

Trip Planner

Search our weather history database for the weather conditions in past years. The results will help you decide how hot, cold, wet, or windy it might be!

Date:

Astronomy

Dec. 30, 1999 Rise Set
Actual Time 7:08 AM CST 5:16 PM CST
Civil Twilight 6:41 AM CST 5:43 PM CST
Nautical Twilight 6:11 AM CST 6:13 PM CST
Astronomical Twilight 5:41 AM CST 6:43 PM CST
Moon 12:49 AM CST (12/30) 12:55 PM CST (12/30)
Length of Visible Light 11h 01m
Length of Day
10h 08m
Last Quarter, 39% of the Moon is Illuminated
Dec 30
Last Quarter
Jan 6
New
Jan 14
First Quarter
Jan 20
Full
Jan 28
Last Quarter

Hourly Weather History & Observations

Time (CST) Temp. Windchill Dew Point Humidity Pressure Visibility Wind Dir Wind Speed Gust Speed Precip Events Conditions
12:53 AM 43.0 °F 39.5 °F 39.9 °F 89% 29.99 in 10.0 mi ESE 5.8 mph - N/A   Clear
1:53 AM 42.1 °F 37.7 °F 42.1 °F 100% 29.97 in 1.0 mi SE 6.9 mph - N/A   Mist
1:56 AM 42.8 °F 38.6 °F 42.8 °F 100% 29.96 in 0.2 mi SSE 6.9 mph - N/A   Mist
2:53 AM 46.9 °F - 46.9 °F 100% 29.97 in 0.2 mi SE 5.8 mph - 0.00 in Rain Light Rain
3:08 AM 46.4 °F 43.5 °F 46.4 °F 100% 29.96 in 0.2 mi SE 5.8 mph - 0.00 in   Overcast
3:18 AM 46.4 °F 44.3 °F 46.4 °F 100% 29.97 in 0.2 mi SE 4.6 mph - 0.00 in   Mist
3:53 AM 48.0 °F - 48.0 °F 100% 29.98 in 0.2 mi SE 3.5 mph - 0.00 in Rain Light Rain
4:00 AM 46.4 °F 45.2 °F 46.4 °F 100% 29.97 in 0.5 mi SE 3.5 mph - 0.00 in Rain Light Rain
4:53 AM 48.0 °F - 48.0 °F 100% 29.98 in 0.5 mi SE 3.5 mph - 0.00 in Rain Light Rain
5:53 AM 48.0 °F - 48.0 °F 100% 29.99 in 0.2 mi SSE 5.8 mph - 0.00 in Rain Light Rain
7:53 AM 48.9 °F - 48.9 °F 100% 29.99 in 0.2 mi SSE 6.9 mph - 0.00 in   Mist
8:53 AM 50.0 °F - 50.0 °F 100% 30.00 in 0.2 mi SSE 5.8 mph - N/A   Mist
9:25 AM 51.8 °F - 51.8 °F 100% 29.99 in 0.5 mi SE 6.9 mph - N/A   Mist
9:38 AM 51.8 °F - 51.8 °F 100% 29.99 in 1.5 mi ESE 6.9 mph - N/A   Overcast
9:43 AM 53.6 °F - 53.6 °F 100% 29.99 in 3.0 mi SE 8.1 mph - N/A   Overcast
9:53 AM 54.0 °F - 54.0 °F 100% 30.01 in 10.0 mi SE 8.1 mph - N/A   Partly Cloudy
10:53 AM 68.0 °F - 55.9 °F 65% 30.00 in 10.0 mi SW 16.1 mph 20.7 mph N/A   Clear
11:53 AM 70.0 °F - 55.0 °F 59% 29.96 in 10.0 mi SW 15.0 mph - N/A   Clear
12:53 PM 73.0 °F - 54.0 °F 51% 29.92 in 10.0 mi South 15.0 mph 24.2 mph N/A   Clear
1:53 PM 72.0 °F - 54.0 °F 53% 29.91 in 10.0 mi SW 12.7 mph - N/A   Partly Cloudy
2:53 PM 73.0 °F - 55.0 °F 53% 29.90 in 10.0 mi SSW 15.0 mph - N/A   Partly Cloudy
3:53 PM 71.1 °F - 53.1 °F 53% 29.89 in 10.0 mi South 15.0 mph - N/A   Clear
4:53 PM 68.0 °F - 54.0 °F 61% 29.91 in 10.0 mi South 12.7 mph 18.4 mph N/A   Clear
7:58 PM 64.4 °F - 55.4 °F 73% 29.93 in 10.0 mi North - - N/A   Clear
8:55 PM 62.6 °F - 55.4 °F 77% 29.94 in 10.0 mi South 8.1 mph - N/A   Clear
9:53 PM 62.1 °F - 55.9 °F 80% 29.96 in 10.0 mi South 5.8 mph - N/A   Clear
9:55 PM 60.8 °F - 55.4 °F 82% 29.95 in 10.0 mi SSE 5.8 mph - N/A   Clear
10:53 PM 60.1 °F - 55.9 °F 86% 29.97 in 10.0 mi South 6.9 mph - N/A   Clear
11:53 PM 57.0 °F - 55.0 °F 93% 29.97 in 10.0 mi SSE 6.9 mph - N/A   Clear